Tracking 17925 objects as of 22-January-2017
HD Live streaming from Space Station
objects crossing your sky now

INTELSAT 2-F4

Track INTELSAT 2-F4 now!
INTELSAT 2-F4 is classified as:


NORAD ID: 2969
Int'l Code: 1967-094A
Perigee: 35,809.4 km
Apogee: 35,930.8 km
Inclination: 4.1 °
Period: 1,440.0 minutes
Semi major axis: 42241 km
RCS: 2.5118 m2 (large)
Launch date: September 28, 1967
Source: International Telecommunications Satellite Organization (ITSO)
Launch site: AIR FORCE EASTERN TEST RANGE (AFETR)
Your satellite tracking list
Your tracking list is empty





NASA's NSSDC Master Catalog

Two Line Element Set (TLE):
1 02969U 67094A   17020.17544706 -.00000280  00000-0  00000+0 0  9996
2 02969   4.1064 298.7284 0014362 239.4231 303.3186  1.00194569 82349
Source of the keplerian elements: AFSPC